| time (UTC) | temp C | wind direction | speed KPH | gust KPH | rain 1hr cm | rain 24hr cm | rain mn cm | humidity % | barometer mb |
| 20260505022221 | 8 | 35 | 0.0 | 0.0 | 0.00 | 0.13 | 0.00 | 89 | 1011.2 |
| 20260505021723 | 8 | 35 | 0.0 | 0.0 | 0.00 | 0.13 | 0.00 | 89 | 1011.3 |
| 20260505021217 | 8 | 329 | 0.0 | 0.0 | 0.00 | 0.13 | 0.00 | 89 | 1011.4 |
| 20260505020727 | 8 | 180 | 0.0 | 0.0 | 0.00 | 0.13 | 0.00 | 89 | 1011.5 |
| 20260505020223 | 8 | 180 | 0.0 | 0.0 | 0.00 | 0.13 | 0.00 | 89 | 1011.5 |
| 20260505015721 | 8 | 180 | 0.0 | 0.0 | 0.00 | 0.13 | 0.00 | 89 | 1011.6 |
| 20260505015223 | 8 | 180 | 0.0 | 0.0 | 0.00 | 0.13 | 0.00 | 89 | 1011.6 |
| 20260505014730 | 8 | 180 | 0.0 | 0.0 | 0.00 | 0.13 | 0.00 | 89 | 1011.6 |
| 20260505014220 | 8 | 98 | 0.0 | 0.0 | 0.00 | 0.13 | 0.00 | 89 | 1011.6 |
| 20260505012712 | 8 | 318 | 0.0 | 0.0 | 0.00 | 0.13 | 0.00 | 90 | 1011.8 |
| 20260505012221 | 8 | 351 | 0.0 | 0.0 | 0.00 | 0.13 | 0.00 | 90 | 1011.9 |
| 20260505011714 | 8 | 351 | 0.0 | 0.0 | 0.00 | 0.13 | 0.00 | 90 | 1012.0 |
| 20260505011208 | 8 | 355 | 0.0 | 0.0 | 0.00 | 0.13 | 0.00 | 90 | 1012.0 |
| 20260505010732 | 8 | 5 | 0.0 | 0.0 | 0.00 | 0.13 | 0.00 | 89 | 1012.1 |
| 20260505010227 | 8 | 46 | 0.0 | 0.0 | 0.00 | 0.13 | 0.00 | 89 | 1012.1 |
| 20260505005728 | 8 | 46 | 0.0 | 0.0 | 0.00 | 0.13 | 0.00 | 89 | 1012.2 |
| 20260505005217 | 8 | 53 | 0.0 | 0.0 | 0.00 | 0.13 | 0.00 | 89 | 1012.2 |
| 20260505004231 | 8 | 63 | 0.0 | 0.0 | 0.00 | 0.13 | 0.00 | 88 | 1012.5 |
| 20260505003213 | 8 | 63 | 0.0 | 0.0 | 0.00 | 0.13 | 0.00 | 89 | 1012.6 |
| 20260505001725 | 9 | 30 | 0.0 | 0.0 | 0.00 | 0.13 | 0.00 | 89 | 1012.7 |
| 20260505001219 | 9 | 30 | 0.0 | 0.0 | 0.00 | 0.13 | 0.00 | 89 | 1012.8 |
| 20260505000730 | 9 | 350 | 0.0 | 0.0 | 0.00 | 0.13 | 0.00 | 90 | 1012.8 |
| 20260504235708 | 9 | 350 | 0.0 | 0.0 | 0.00 | 0.13 | 0.00 | 90 | 1013.0 |
| 20260504235212 | 9 | 351 | 0.0 | 0.0 | 0.00 | 0.13 | 0.00 | 90 | 1013.0 |
| 20260504234713 | 9 | 355 | 0.0 | 0.0 | 0.00 | 0.13 | 0.00 | 90 | 1013.1 |
| 20260504234226 | 9 | 5 | 0.0 | 0.0 | 0.00 | 0.13 | 0.00 | 90 | 1013.1 |
| 20260504233707 | 9 | 13 | 0.0 | 0.0 | 0.00 | 0.13 | 0.00 | 90 | 1013.1 |
| 20260504233224 | 9 | 13 | 0.0 | 0.0 | 0.00 | 0.13 | 0.00 | 90 | 1013.1 |
| 20260504232219 | 9 | 343 | 0.0 | 0.0 | 0.00 | 0.13 | 0.00 | 90 | 1013.2 |
| 20260504231730 | 9 | 346 | 0.0 | 0.0 | 0.00 | 0.13 | 0.00 | 90 | 1013.2 |
| 20260504230733 | 9 | 346 | 0.0 | 0.0 | 0.00 | 0.13 | 0.00 | 90 | 1013.4 |
| 20260504230225 | 9 | 5 | 0.0 | 0.0 | 0.00 | 0.13 | 0.00 | 90 | 1013.4 |
| 20260504225722 | 9 | 5 | 0.0 | 0.0 | 0.00 | 0.13 | 0.00 | 90 | 1013.4 |
| 20260504225211 | 9 | 5 | 0.0 | 0.0 | 0.00 | 0.13 | 0.00 | 90 | 1013.4 |
| 20260504224712 | 9 | 5 | 0.0 | 0.0 | 0.00 | 0.13 | 0.00 | 90 | 1013.5 |
| 20260504224230 | 9 | 5 | 0.0 | 0.0 | 0.00 | 0.13 | 0.00 | 90 | 1013.4 |
| 20260504223718 | 9 | 355 | 0.0 | 0.0 | 0.00 | 0.13 | 0.00 | 90 | 1013.3 |
| 20260504223210 | 9 | 348 | 0.0 | 0.0 | 0.00 | 0.13 | 0.00 | 90 | 1013.3 |
| 20260504222710 | 9 | 77 | 0.0 | 0.0 | 0.00 | 0.13 | 0.00 | 90 | 1013.3 |
| 20260504221712 | 9 | 342 | 0.0 | 0.0 | 0.00 | 0.13 | 0.00 | 89 | 1013.3 |
| 20260504220728 | 9 | 330 | 0.0 | 0.0 | 0.00 | 0.13 | 0.00 | 89 | 1013.5 |
| 20260504220224 | 10 | 0 | 0.0 | 0.0 | 0.00 | 0.13 | 0.13 | 90 | 1013.5 |
| 20260504214223 | 10 | 0 | 0.0 | 0.0 | 0.00 | 0.13 | 0.13 | 90 | 1013.9 |
| 20260504213721 | 10 | 0 | 0.0 | 0.0 | 0.00 | 0.13 | 0.13 | 90 | 1013.9 |
| 20260504213221 | 10 | 0 | 0.0 | 0.0 | 0.00 | 0.13 | 0.13 | 90 | 1014.1 |
| 20260504212229 | 10 | 109 | 0.0 | 0.0 | 0.00 | 0.13 | 0.13 | 90 | 1014.1 |
| 20260504211726 | 10 | 109 | 0.0 | 0.0 | 0.00 | 0.13 | 0.13 | 90 | 1014.3 |
| 20260504211220 | 10 | 109 | 0.0 | 0.0 | 0.00 | 0.13 | 0.13 | 90 | 1014.3 |
| 20260504210732 | 10 | 109 | 0.0 | 0.0 | 0.00 | 0.13 | 0.13 | 90 | 1014.3 |
| 20260504210225 | 10 | 109 | 0.0 | 0.0 | 0.00 | 0.13 | 0.13 | 90 | 1014.3 |
| 20260504205730 | 10 | 109 | 0.0 | 0.0 | 0.00 | 0.13 | 0.13 | 90 | 1014.2 |
| 20260504205208 | 10 | 15 | 0.0 | 0.0 | 0.00 | 0.13 | 0.13 | 90 | 1014.3 |
| 20260504204726 | 10 | 18 | 0.0 | 0.0 | 0.00 | 0.13 | 0.13 | 90 | 1014.2 |
| 20260504204214 | 10 | 5 | 0.0 | 0.0 | 0.00 | 0.13 | 0.13 | 90 | 1014.2 |
| 20260504203709 | 10 | 5 | 0.0 | 0.0 | 0.00 | 0.13 | 0.13 | 90 | 1014.2 |
| 20260504203223 | 10 | 5 | 0.0 | 0.0 | 0.00 | 0.13 | 0.13 | 90 | 1014.3 |
| 20260504202715 | 10 | 5 | 0.0 | 0.0 | 0.00 | 0.13 | 0.13 | 90 | 1014.2 |
| 20260504202214 | 10 | 5 | 0.0 | 0.0 | 0.00 | 0.13 | 0.13 | 90 | 1014.3 |
| 20260504201724 | 10 | 5 | 0.0 | 0.0 | 0.00 | 0.13 | 0.13 | 90 | 1014.3 |
| 20260504195722 | 10 | 5 | 0.0 | 0.0 | 0.00 | 0.13 | 0.13 | 89 | 1014.1 |
| 20260504195221 | 10 | 5 | 0.0 | 0.0 | 0.00 | 0.13 | 0.13 | 89 | 1014.0 |
| 20260504194214 | 10 | 5 | 0.0 | 0.0 | 0.00 | 0.13 | 0.13 | 89 | 1014.0 |
| 20260504193718 | 10 | 5 | 0.0 | 0.0 | 0.00 | 0.13 | 0.13 | 89 | 1014.0 |
| 20260504192723 | 10 | 5 | 0.0 | 0.0 | 0.00 | 0.13 | 0.13 | 88 | 1013.9 |
| 20260504192216 | 10 | 5 | 0.0 | 0.0 | 0.00 | 0.13 | 0.13 | 89 | 1013.9 |
| 20260504191215 | 10 | 5 | 0.0 | 0.0 | 0.00 | 0.13 | 0.13 | 88 | 1013.9 |
| 20260504190722 | 10 | 5 | 0.0 | 0.0 | 0.00 | 0.13 | 0.13 | 88 | 1013.9 |
| 20260504190225 | 11 | 5 | 0.0 | 0.0 | 0.00 | 0.13 | 0.13 | 88 | 1013.8 |
| 20260504185726 | 11 | 5 | 0.0 | 0.0 | 0.00 | 0.13 | 0.13 | 88 | 1013.8 |
| 20260504183725 | 11 | 5 | 0.0 | 0.0 | 0.03 | 0.13 | 0.13 | 87 | 1013.7 |
| 20260504182224 | 11 | 5 | 0.0 | 0.0 | 0.03 | 0.13 | 0.13 | 87 | 1013.8 |
| 20260504181218 | 11 | 5 | 0.0 | 0.0 | 0.03 | 0.13 | 0.13 | 86 | 1013.9 |
| 20260504180215 | 11 | 5 | 0.0 | 0.0 | 0.05 | 0.13 | 0.13 | 86 | 1014.1 |
| 20260504175727 | 11 | 5 | 0.0 | 0.0 | 0.05 | 0.13 | 0.13 | 86 | 1014.3 |
| 20260504175225 | 11 | 5 | 0.0 | 0.0 | 0.05 | 0.13 | 0.13 | 86 | 1014.3 |
| 20260504174713 | 11 | 5 | 0.0 | 0.0 | 0.08 | 0.13 | 0.13 | 86 | 1014.2 |
| 20260504174222 | 12 | 0 | 0.0 | 0.0 | 0.05 | 0.10 | 0.10 | 86 | 1014.3 |
| 20260504173729 | 12 | 348 | 0.0 | 0.0 | 0.05 | 0.10 | 0.10 | 86 | 1014.3 |
| 20260504173212 | 12 | 348 | 0.0 | 0.0 | 0.05 | 0.10 | 0.10 | 86 | 1014.3 |
| 20260504172715 | 12 | 348 | 0.0 | 0.0 | 0.08 | 0.10 | 0.10 | 86 | 1014.4 |
| 20260504171724 | 12 | 348 | 0.0 | 0.0 | 0.08 | 0.10 | 0.10 | 84 | 1014.5 |
| 20260504170735 | 12 | 348 | 0.0 | 0.0 | 0.08 | 0.08 | 0.08 | 84 | 1014.6 |
| 20260504160208 | 13 | 324 | 0.0 | 0.0 | 0.00 | 0.00 | 0.00 | 74 | 1014.5 |
| 20260504150719 | 15 | 296 | 8.0 | 14.5 | 0.00 | 0.00 | 0.00 | 70 | 1014.3 |
| 20260504150244 | 15 | 296 | 6.4 | 12.9 | 0.00 | 0.00 | 0.00 | 69 | 1014.3 |
| 20260504140717 | 16 | 297 | 1.6 | 8.0 | 0.00 | 0.00 | 0.00 | 62 | 1014.3 |
| 20260504140220 | 16 | 297 | 1.6 | 8.0 | 0.00 | 0.00 | 0.00 | 62 | 1014.4 |
| 20260504130720 | 16 | 326 | 0.0 | 8.0 | 0.00 | 0.00 | 0.00 | 60 | 1014.3 |
| 20260504130220 | 16 | 31 | 0.0 | 8.0 | 0.00 | 0.00 | 0.00 | 60 | 1014.3 |
| 20260504120220 | 17 | 14 | 3.2 | 11.3 | 0.00 | 0.00 | 0.00 | 55 | 1014.4 |
| 20260504110222 | 18 | 172 | 0.0 | 9.7 | 0.00 | 0.00 | 0.00 | 48 | 1014.4 |
| 20260504100218 | 17 | 225 | 0.0 | 0.0 | 0.00 | 0.00 | 0.00 | 49 | 1014.8 |
| 20260504081727 | 13 | 171 | 0.0 | 0.0 | 0.00 | 0.00 | 0.00 | 65 | 1015.6 |
| 20260504080214 | 13 | 182 | 0.0 | 0.0 | 0.00 | 0.00 | 0.00 | 66 | 1015.5 |
| 20260504070222 | 12 | 288 | 0.0 | 0.0 | 0.00 | 0.00 | 0.00 | 72 | 1015.6 |
| 20260504060228 | 10 | 107 | 0.0 | 0.0 | 0.00 | 0.00 | 0.00 | 76 | 1015.3 |
| 20260504050719 | 8 | 132 | 0.0 | 0.0 | 0.00 | 0.00 | 0.00 | 76 | 1015.6 |
| 20260504050209 | 8 | 248 | 0.0 | 0.0 | 0.00 | 0.00 | 0.00 | 76 | 1015.5 |
| 20260504045718 | 8 | 260 | 0.0 | 0.0 | 0.00 | 0.00 | 0.00 | 76 | 1015.5 |
| 20260504045211 | 8 | 260 | 0.0 | 0.0 | 0.00 | 0.00 | 0.00 | 76 | 1015.6 |
| 20260504044219 | 8 | 137 | 0.0 | 0.0 | 0.00 | 0.00 | 0.00 | 77 | 1015.7 |
| 20260504043722 | 8 | 137 | 0.0 | 0.0 | 0.00 | 0.00 | 0.00 | 76 | 1015.7 |
| 20260504043216 | 8 | 269 | 0.0 | 0.0 | 0.00 | 0.00 | 0.00 | 76 | 1015.7 |
| 20260504042228 | 8 | 192 | 0.0 | 0.0 | 0.00 | 0.00 | 0.00 | 76 | 1015.6 |
| 20260504040718 | 8 | 0 | 0.0 | 0.0 | 0.00 | 0.00 | 0.00 | 77 | 1015.7 |
| 20260504040214 | 8 | 21 | 0.0 | 0.0 | 0.00 | 0.00 | 0.00 | 77 | 1015.8 |
| 20260504035724 | 7 | 355 | 0.0 | 0.0 | 0.00 | 0.00 | 0.00 | 77 | 1015.9 |
| 20260504035227 | 7 | 35 | 0.0 | 0.0 | 0.00 | 0.00 | 0.00 | 78 | 1015.9 |
| 20260504034726 | 7 | 355 | 0.0 | 0.0 | 0.00 | 0.00 | 0.00 | 79 | 1016.0 |
| 20260504034217 | 7 | 106 | 0.0 | 0.0 | 0.00 | 0.00 | 0.00 | 78 | 1016.1 |
| 20260504033710 | 7 | 133 | 0.0 | 0.0 | 0.00 | 0.00 | 0.00 | 79 | 1016.2 |
| 20260504033221 | 7 | 133 | 0.0 | 0.0 | 0.00 | 0.00 | 0.00 | 78 | 1016.4 |
| 20260504032707 | 7 | 133 | 0.0 | 0.0 | 0.00 | 0.00 | 0.00 | 79 | 1016.4 |
| 20260504032222 | 7 | 133 | 0.0 | 0.0 | 0.00 | 0.00 | 0.00 | 78 | 1016.4 |
| 20260504031724 | 7 | 133 | 0.0 | 0.0 | 0.00 | 0.00 | 0.00 | 79 | 1016.4 |
| 20260504031218 | 7 | 133 | 0.0 | 0.0 | 0.00 | 0.00 | 0.00 | 78 | 1016.4 |
| 20260504030720 | 7 | 133 | 0.0 | 0.0 | 0.00 | 0.00 | 0.00 | 78 | 1016.4 |
| 20260504030233 | 7 | 133 | 0.0 | 0.0 | 0.00 | 0.00 | 0.00 | 77 | 1016.4 |
| 20260504025226 | 7 | 133 | 0.0 | 0.0 | 0.00 | 0.00 | 0.00 | 77 | 1016.4 |
| 20260504024724 | 8 | 355 | 0.0 | 0.0 | 0.00 | 0.00 | 0.00 | 76 | 1016.5 |
| 20260504024231 | 8 | 355 | 0.0 | 0.0 | 0.00 | 0.00 | 0.00 | 76 | 1016.5 |
| 20260504023734 | 8 | 350 | 0.0 | 0.0 | 0.00 | 0.00 | 0.00 | 76 | 1016.4 |
| 20260504023222 | 8 | 172 | 0.0 | 0.0 | 0.00 | 0.00 | 0.00 | 76 | 1016.4 |